Regional Weather Roundup
Issued by NWS

Home | Current Version | Previous Version | Text Only | Print | Product List | Glossary Off
Versions: 1 2 3 4 5 6 7 8 9 10 11 12 13 14 15 16 17 18 19 20 21 22 23 24 25 26 27 28 29 30 31 32 33 34 35 36 37 38 39 40 41 42 43 44 45 46 47 48 49 50

000
ASUS45 KBOU 300307
RWRCO

WEATHER ROUNDUP FOR COLORADO
NATIONAL WEATHER SERVICE DENVER/BOULDER CO
900 PM MDT SAT AUG 29 2015

NOTE: "FAIR" INDICATES FEW OR NO CLOUDS BELOW 12000 FEET WITH NO
SIGNIFICANT WEATHER AND/OR OBSTRUCTIONS TO VISIBILITY.

COZ001>005-013-030-031-300400-
...NORTHWEST COLORADO...

CITY           SKY/WX    TMP DP  RH WIND       PRES   REMARKS
CRAIG          PTCLDY    63  45  51 W6        30.17R
HAYDEN         NOT AVBL
MEEKER         PTCLDY    69  39  33 VRB3      30.19R
MOUNT WERNER   NOT AVBL
STEAMBOAT SPGS PTCLDY    64  42  44 CALM      30.23R
WALDEN         PTCLDY    61  34  36 SW3       30.34R
$$

COZ006>008-011-300400-
...WEST CENTRAL VALLEYS...

CITY           SKY/WX    TMP DP  RH WIND       PRES   REMARKS
GRAND JUNCTION PTCLDY    73  40  30 E5        30.05R
MONTROSE       PTCLDY    72  45  37 S10       30.17R
EAGLE          PTCLDY    70  43  37 NE3       30.24R
RIFLE          PTCLDY    74  42  31 SE9       30.12R
DELTA          PTCLDY    74  50  42 NE6       30.11R
NUCLA          PTCLDY    77  30  18 S7        30.20R
$$

COZ017>023-064>068-300400-
...SOUTHWEST COLORADO...

CITY           SKY/WX    TMP DP  RH WIND       PRES   REMARKS
DURANGO        CLEAR     71  44  37 N5        30.26R
CORTEZ         CLEAR     65  45  48 NE5       30.18R
PAGOSA SPRINGS CLEAR     63  43  47 CALM      30.36R
TELLURIDE      PTCLDY    61  43  51 SE6       30.48R
WOLF CREEK PAS PTCLDY    50  36  57 SW14      30.71R
$$

COZ009-010-012-014-032>034-037-058>063-300400-
...CENTRAL COLORADO...

CITY           SKY/WX    TMP DP  RH WIND       PRES   REMARKS
ASPEN          CLEAR     61  43  51 SW12      30.33R
BUENA VISTA    PTCLDY    67  40  36 E5        30.36R
COPPER MTN     MOCLDY    59  36  41 W12       30.68S
BERTHOUD PASS  FAIR      46  36  66 CALM      30.73R
COTTONWOOD PAS CLOUDY    64  34  32 CALM      30.51R
GUNNISON       PTCLDY    64  39  39 N5        30.36R
KREMMLING      PTCLDY    66  32  28 CALM      30.30R
LEADVILLE      CLOUDY    60  35  39 N3        30.50R
MONARCH PASS   PTCLDY    52  36  54 SW12      30.78R
SALIDA         PTCLDY    72  40  30 SE12      30.39R
SUNLIGHT       PTCLDY    55  37  50 CALM      30.60R
WILKERSON PASS PTCLDY    52  36  54 S12G25    30.64R
$$

COZ069>075-300400-
...SAN LUIS VALLEY/SANGRE DE CRISTO MOUNTAINS...

CITY           SKY/WX    TMP DP  RH WIND       PRES   REMARKS
ALAMOSA        CLEAR     61  45  55 S10       30.33R
LA VETA PASS   PTCLDY    54  37  54 MISG      30.54S
SAGUACHE       MOCLDY    64  41  42 CALM      30.35R
$$

COZ035-036-038>040-300400-
...NORTHERN COLORADO FRONT RANGE...

CITY           SKY/WX    TMP DP  RH WIND       PRES   REMARKS
DENVER INTL AP PTCLDY    75  40  28 S18       30.14R
DMNS CITY PARK   N/A     79  40  24 S20       30.13R
AURORA         MOCLDY    75  41  28 S18       30.17R
FRONT RANGE AP PTCLDY    75  37  25 S17G26    30.16R
ERIE MUNI ARPT CLEAR     80  41  24 S9G16     30.11R
BOULDER MUN AP CLEAR     73  45  35 S3        30.12R
CENTENNIAL     PTCLDY    73  43  33 S16       30.19R
BROOMFIELD     PTCLDY    77  43  29 S8        30.16R
FORT COLLINS   CLEAR     77  45  31 SE8       30.10R
LONGMONT       CLEAR     75  49  40 CALM      30.12R
$$

COZ041-046-047-076>085-087-088-300400-
...PIKES PEAK/PALMER DIVIDE AND SOUTHERN FOOTHILLS...

CITY           SKY/WX    TMP DP  RH WIND       PRES   REMARKS
COLO. SPRINGS  MOCLDY    70  39  32 SE7       30.27R
A. F. ACADEMY  MOCLDY    68  40  35 S10       30.29R
ELLICOTT       CLEAR      1   1 100 SE14      30.26R WCI -17
FALCON         CLOUDY    63  40  43 MISG      30.33R
FORT CARSON    CLEAR     72  42  34 S5        30.24R
LIMON          CLEAR     62  41  46 SE8       30.22R
MONUMENT HILL  CLEAR     64  36  34 MISG      30.31R
TRINIDAD       CLEAR     71  47  42 SE9       30.24R
$$

COZ042>045-048>051-090-091-300400-
...NORTHEAST COLORADO...

CITY           SKY/WX    TMP DP  RH WIND       PRES   REMARKS
GREELEY ARPT   CLEAR     72  46  40 SE8       30.10R
AKRON          CLEAR     71  45  39 S14       30.14R
BURLINGTON     CLEAR     67  45  45 S10       30.16R
WRAY           CLEAR     77  39  26 SE12      30.10R
STERLING       CLEAR     73  43  33 S10       30.07R
HOLYOKE        CLEAR     70  48  46 S8        30.09R
FORT MORGAN    CLEAR     71  42  35 SE7       30.12R
$$

COZ086-089-092>099-300400-
...SOUTHEAST COLORADO...

CITY           SKY/WX    TMP DP  RH WIND       PRES   REMARKS
PUEBLO         CLEAR     75  40  28 E8        30.13R
LA JUNTA       CLEAR     72  39  30 E8        30.13R
LAMAR          CLEAR     73  45  36 SE15      30.11R
SPRINGFIELD    NOT AVBL
$$




USA.gov is the U.S. government's official web portal to all federal, state and local government web resources and services.